GSAT0223 (PRN E34)

Last updated on Sun Jul 21 2024 00:03:08 GMT+0000 (Coordinated Universal Time)

1 49809U 21116A 24202.45158160 -.00000070 00000+0 00000+0 0 9997 2 49809 57.2983 0.4713 0002507 163.4560 34.4585 1.70475910 16303

Satellite not in orbit

GSAT0223 (PRN E34)